SCP
0 0 0 0 0 0 0 0 0 0 0 0 0 0 0 0 0 0 0 0 0 0 0 0 0 0 0 0 0 0 0 0 0 0 0 0 0 0 0 0 0 0 0 0
0 0 0 0 0 0 0 0 0 0 0 0 0 0 0 0 0 0 0 0 0 0 0 0 0 0 0 0 0 0 0 0 0 0 0 0 0 0 0 0 0 0 0 0
0 0 0 0 0 0 0 0 0 0 0 0 0 0 0 0 0 0 0 0 0 0 0 0 0 0 0 0 0 0 0 0 0 0 0 0 0 0 0 0 0 0 0 0
0 0 0 0 0 0 0 0 0 0 0 0 0 0 0 0 0 0 0 0 0 0 0 0 0 0 0 0 0 0 0 0 0 0 0 0 0 0 0 0 0 0 0 0
0 0 0 0 0 0 0 0 0 0 0 0 0 0 0 0 0 0 0 0 0 0 0 0 0 0 0 0 0 0 0 0 0 0 0 0 0 0 0 0 0 0 0 0
0 0 0 0 0 0 0 0 0 0 0 0 0 0 0 0 0 0 0 0 0 0 0 0 0 0 0 0 0 0 0 0 0 0 0 0 0 0 0 0 0 0 0 0
0 0 0 0 0 0 0 0 0 0 0 0 0 0 0 0 0 0 0 0 0 0 0 0 0 0 0 0 0 0 0 1 0 0 0 0 0 0 0 0 0 0 0 0
0 0 0 0 0 0 0 0 0 0 0 0 0 0 0 0 0 0 0 0 0 0 0 0 0 0 0 0 0 1 1 1 1 0 0 0 0 0 0 0 0 0 0 0
0 0 0 0 0 0 0 0 0 0 0 0 0 0 0 0 0 0 0 0 0 0 0 0 0 0 0 0 0 1 1 1 1 1 0 0 0 0 0 0 0 0 0 0
-0 -0 0 0 0 0 0 0 0 0 0 0 0 0 0 0 0 0 0 0 0 0 0 0 0 0 0 0 0 1 1 1 1 1 0 0 0 0 0 0 0 0 0 0
0 0 0 0 0 0 0 0 0 0 0 0 0 0 0 0 0 0 0 0 0 0 0 0 0 0 0 0 1 1 1 1 1 1 0 0 0 0 0 0 0 0 0 0
0 0 0 0 0 0 0 0 0 0 0 0 0 0 0 0 0 0 0 0 0 0 0 0 0 0 0 1 1 1 1 1 1 1 0 0 0 0 0 0 0 0 0 0
0 0 0 0 -0 -0 0 0 0 0 0 0 0 0 0 0 0 0 0 0 0 0 0 0 0 1 1 1 1 1 1 1 1 1 1 0 0 0 0 0 0 0 0 0
0 0 0 0 0 0 0 0 0 0 0 0 0 0 0 0 0 0 0 0 0 0 0 0 1 1 1 1 1 1 1 1 1 1 1 1 0 0 0 0 0 0 0 0
0 0 0 0 0 0 0 0 0 0 0 0 0 0 0 0 0 0 0 0 0 1 1 1 1 1 1 1 1 1 1 1 1 1 1 1 1 0 0 0 0 0 0 0
0 0 0 0 0 0 0 0 0 0 0 0 0 0 0 0 0 0 0 1 1 1 1 1 1 1 1 1 1 1 1 1 1 1 1 1 1 1 0 0 0 0 0 0
0 0 0 0 0 0 0 0 0 0 0 0 0 0 0 0 0 0 0 1 1 1 1 1 1 1 1 1 1 1 1 1 1 1 1 1 1 1 1 1 0 0 0 0
0 0 0 0 0 0 0 0 0 0 0 0 0 0 0 0 0 0 0 0 1 1 1 1 1 1 1 1 1 1 1 1 1 1 1 1 1 1 1 1 1 1 1 0
0 0 0 0 0 0 0 0 0 0 0 0 0 0 0 0 0 0 0 0 1 1 1 1 1 1 1 1 1 1 1 1 1 1 1 1 1 1 1 1 1 1 1 1
0 0 0 0 0 0 0 0 0 0 0 0 0 0 0 0 0 0 0 1 1 1 1 1 2 2 2 2 1 1 1 1 1 1 1 1 1 1 1 1 1 1 1 1
0 0 0 0 0 0 0 0 0 0 0 0 0 0 0 0 0 1 1 1 1 2 2 2 2 2 2 2 2 1 1 1 1 1 1 1 1 1 1 1 1 1 1 1
0 0 0 0 0 0 0 0 0 0 0 0 0 0 0 0 1 1 1 1 2 2 2 2 2 2 2 2 2 1 1 1 1 1 1 1 1 1 1 1 1 1 1 1
0 0 0 0 0 0 0 0 0 0 0 0 0 0 0 1 1 1 2 2 2 2 2 2 2 2 2 2 1 1 1 1 1 1 1 1 1 1 1 1 1 1 1 1
0 0 0 0 0 0 0 0 0 0 0 0 0 1 1 1 1 2 2 2 2 2 2 2 2 2 2 1 1 1 1 1 1 1 1 1 1 1 1 1 1 1 1 1
0 0 0 0 0 0 0 1 0 0 0 0 1 1 1 1 1 1 2 2 2 2 2 2 2 2 2 2 2 1 1 1 2 1 1 1 1 1 1 1 1 1 1 1
0 0 0 1 1 1 1 1 0 0 0 0 0 1 1 1 1 1 1 1 2 2 2 2 2 2 2 2 2 1 1 2 2 2 1 1 1 1 1 1 1 0 0 0
Wind_Speed
1 2 4 8 8 8 6 3 3 5 6 6 7 9 12 11 11 11 11 10 9 9 8 9 9 9 7 6 6 5 5 3 3 2 2 2 2 1 2 2 3 3 3 4
3 5 10 7 6 5 4 3 2 2 5 6 6 6 9 12 14 15 15 13 11 8 7 8 8 8 8 7 6 5 5 4 3 2 2 2 2 2 2 2 3 3 3 3
7 9 6 5 5 4 4 6 6 4 1 4 6 1 4 6 7 10 12 12 13 14 12 10 10 8 9 8 7 6 5 4 3 3 3 3 3 3 2 2 2 2 2 3
6 7 4 5 6 5 4 6 6 4 4 1 4 3 5 5 6 9 10 11 12 12 11 11 11 10 10 9 7 6 5 5 4 4 4 4 4 3 2 2 2 2 2 2
6 4 4 6 7 4 6 4 4 3 3 1 1 4 5 4 7 10 11 13 13 12 13 13 12 12 10 9 8 6 6 5 4 4 5 5 4 3 2 2 3 2 2 2
7 5 4 6 5 3 2 4 5 5 5 1 3 4 5 6 12 11 12 13 14 13 14 13 11 10 9 9 8 7 7 5 5 4 4 5 5 5 4 3 3 2 1 1
6 7 4 1 2 4 4 7 4 5 4 5 3 3 8 9 10 13 15 15 14 14 14 13 12 11 10 10 9 8 8 6 5 5 5 5 5 5 5 4 4 3 2 1
3 7 6 2 5 5 3 9 9 6 5 4 3 3 7 7 6 8 11 13 14 14 13 14 14 13 12 12 11 9 9 7 6 6 5 4 5 4 3 4 3 3 2 2
5 7 6 4 3 5 2 2 8 8 3 1 3 4 5 1 2 5 8 11 14 15 14 13 13 12 12 12 11 11 10 7 7 6 6 5 5 4 4 4 3 2 2 2
7 4 6 5 1 2 6 6 5 6 5 2 3 3 5 3 4 5 7 9 11 12 12 12 12 12 12 11 10 10 10 9 7 7 6 6 5 5 5 4 4 3 3 3
5 4 5 3 2 3 1 2 5 4 6 7 3 7 6 9 9 8 9 10 11 12 13 12 12 12 11 10 10 10 9 8 7 7 6 5 5 5 5 4 4 4 4 4
2 5 3 6 6 4 4 5 6 5 3 5 5 7 4 7 7 8 8 9 10 11 11 11 11 10 10 11 10 10 9 9 8 7 7 6 5 5 5 5 4 4 4 4
3 6 1 7 7 5 1 1 3 5 4 4 4 6 2 3 3 5 6 7 8 8 9 9 9 9 10 10 10 10 10 9 8 7 7 6 6 6 6 5 5 4 5 4
5 5 7 7 7 3 3 4 0 4 3 3 6 5 3 3 4 4 5 6 7 8 8 9 9 9 9 9 10 10 9 9 9 8 8 7 7 7 6 6 5 5 5 5
6 4 2 3 3 2 3 5 3 1 5 7 7 7 7 6 7 6 6 7 7 7 8 9 9 8 8 8 8 9 9 8 9 9 8 8 7 7 6 6 6 5 5 6
4 3 2 3 3 4 6 6 4 2 3 4 4 4 4 4 4 4 5 7 7 7 8 9 9 9 9 9 9 9 8 9 9 9 9 8 8 7 7 6 6 6 5 5
2 3 3 2 3 3 5 6 4 2 1 5 5 5 3 3 5 6 6 7 8 8 8 9 10 9 9 9 9 10 9 8 8 8 8 8 8 8 7 7 6 6 5 5
5 3 3 1 2 4 9 5 2 2 2 1 3 4 5 5 6 6 6 7 7 7 8 8 8 8 7 7 7 7 7 8 8 7 7 7 8 8 8 8 7 7 5 5
7 7 3 3 2 6 6 4 2 3 3 2 3 4 3 3 4 1 2 5 6 6 6 6 6 7 6 6 7 7 7 7 8 8 8 8 8 8 8 8 7 6 6 5
4 6 5 3 3 5 6 5 2 5 2 4 1 4 4 4 3 3 2 4 5 5 4 4 5 5 6 5 7 7 7 7 8 8 8 8 8 9 9 8 7 5 5 5
3 2 3 4 4 7 7 5 3 3 6 3 1 2 3 3 5 4 3 3 4 6 5 6 6 5 5 5 7 8 7 7 7 6 7 7 7 7 7 7 6 6 6 5
4 3 4 4 4 8 4 2 2 5 3 1 1 1 3 3 3 3 3 4 5 5 5 6 6 5 4 5 6 7 7 6 6 6 6 6 6 6 6 6 6 6 6 6
3 6 6 7 7 6 2 3 3 3 2 1 1 2 5 5 3 2 2 3 4 5 5 5 6 5 4 5 6 6 5 6 6 6 6 6 6 5 6 6 6 6 5 5
3 0 2 0 3 3 2 1 1 2 2 1 1 2 5 5 4 3 2 2 2 3 4 4 5 5 4 4 4 5 5 6 7 7 6 6 6 5 4 4 4 5 5 5
4 1 1 2 4 3 4 3 1 2 3 3 2 2 3 5 5 4 3 2 2 3 3 4 5 4 4 4 4 4 6 7 6 6 5 5 5 6 5 3 3 4 4 6
3 3 3 6 6 3 5 4 1 3 2 2 2 1 0 2 3 4 4 3 3 3 3 3 4 4 3 3 4 4 6 7 7 5 5 4 4 4 4 4 2 2 1 3
Wind_Direction
268 100 224 225 211 202 188 185 203 211 188 158 167 165 172 176 174 170 172 176 178 175 169 161 157 152 145 141 137 139 136 138 125 106 102 95 87 83 81 92 99 99 102 102
1 250 236 227 231 206 183 179 208 228 184 153 160 171 180 180 184 180 178 179 179 171 165 162 156 153 152 151 147 145 148 152 152 143 139 130 129 120 112 87 79 83 96 101
213 243 243 233 241 213 218 191 194 202 111 96 117 111 191 197 190 182 181 179 179 175 171 168 162 160 158 159 160 157 158 157 160 146 114 98 82 71 69 69 76 71 91 97
241 247 237 236 232 185 234 219 179 159 108 177 145 174 242 195 182 184 183 179 179 176 167 168 165 165 168 169 166 160 162 161 159 143 132 129 129 127 139 132 114 86 87 101
254 243 231 243 243 206 222 205 162 154 130 97 82 129 259 191 194 199 189 182 180 177 173 172 170 170 170 169 166 163 159 160 158 146 144 138 130 136 127 115 108 101 86 91
249 258 215 224 253 208 165 84 48 46 66 19 242 143 246 211 202 192 186 181 178 177 176 174 170 165 167 168 164 162 159 162 158 148 142 143 141 139 129 125 127 126 106 95
296 295 280 189 337 329 96 101 51 12 12 259 254 155 233 231 206 186 181 183 181 177 175 173 171 170 171 170 169 167 164 166 166 157 151 152 153 150 148 149 152 149 139 128
216 274 263 219 183 210 201 142 154 179 205 267 315 217 247 237 204 178 173 175 176 178 178 176 177 177 176 174 171 169 168 168 169 166 164 157 153 148 147 150 152 157 159 165
186 246 270 251 205 164 177 174 167 140 150 141 277 285 306 296 141 153 162 169 177 181 180 178 177 177 176 174 174 172 170 169 172 171 162 154 154 151 152 152 148 154 159 157
171 234 276 274 15 304 167 159 98 115 142 212 275 248 232 216 187 171 171 176 180 177 176 177 178 178 178 175 172 170 171 173 171 167 167 164 162 161 158 151 152 153 150 146
146 172 287 332 194 219 69 96 112 124 148 157 218 260 225 196 191 181 184 178 175 177 178 178 180 179 173 168 168 170 173 170 169 170 165 159 158 156 150 149 155 154 145 142
161 136 242 261 259 214 176 170 144 147 205 163 168 257 249 183 184 176 178 178 173 174 173 172 168 166 166 167 169 170 172 173 175 170 162 161 158 154 155 157 158 156 147 144
118 110 78 332 333 350 34 148 136 138 129 151 162 253 262 145 148 165 166 168 161 160 160 160 155 160 168 171 171 171 172 174 172 164 161 161 161 160 164 166 158 151 147 141
101 106 154 195 227 253 288 298 228 116 139 185 204 210 237 177 168 175 161 159 152 152 153 154 157 163 165 167 169 170 172 171 168 165 164 167 171 170 167 160 153 151 148 143
80 107 157 218 256 304 297 289 290 190 188 183 212 196 210 196 185 177 161 153 148 148 149 153 161 164 161 160 164 167 170 169 169 166 170 176 173 164 158 155 155 152 148 151
63 101 56 345 345 347 311 294 284 257 207 183 171 215 214 190 159 146 150 151 159 161 162 161 161 161 164 165 166 168 173 173 168 170 177 173 165 161 161 160 156 152 152 150
62 98 84 299 315 17 294 261 251 253 227 161 188 220 188 156 173 175 168 158 162 166 165 166 168 169 171 173 170 172 171 164 164 172 174 169 165 164 167 163 158 162 163 153
144 113 126 129 58 226 242 256 191 158 267 188 173 181 170 181 188 179 166 161 163 167 166 171 172 172 172 169 168 163 157 157 159 163 166 168 168 170 169 167 172 174 165 158
155 145 133 130 195 269 282 276 198 145 306 319 141 159 160 134 96 17 175 146 152 158 162 168 167 163 163 165 162 152 158 160 162 167 170 173 170 172 172 174 177 173 163 160
98 124 130 140 168 230 252 274 257 109 289 305 138 149 141 110 116 233 208 139 130 132 141 147 143 140 151 163 156 153 158 161 172 177 178 177 174 172 175 178 177 166 160 167
57 80 153 176 210 253 260 295 21 132 219 269 168 147 129 148 185 199 159 134 131 130 136 138 137 146 162 161 155 158 161 175 182 171 164 169 171 170 169 167 163 154 153 154
172 169 186 161 196 247 272 39 146 211 223 183 114 130 118 127 125 131 130 128 125 129 134 138 142 152 158 158 160 165 177 177 159 150 154 159 163 164 159 157 160 157 155 156
188 188 187 187 212 239 257 170 187 160 135 190 179 174 128 121 126 119 114 115 130 141 145 146 148 153 159 165 167 169 178 160 151 151 160 161 158 159 158 158 161 160 161 167
292 139 127 286 279 282 297 48 68 108 110 130 134 142 121 125 130 134 135 125 132 149 149 147 144 153 170 175 171 173 168 158 154 159 163 161 159 158 157 157 162 169 175 177
257 355 62 268 277 332 346 357 9 39 65 63 57 95 137 134 145 163 173 171 164 156 145 142 149 163 177 171 174 172 161 151 151 158 161 161 167 166 159 155 163 176 191 189
248 208 200 235 238 215 262 287 3 68 51 48 57 25 5 155 165 168 179 181 168 161 144 141 145 155 166 166 174 172 163 156 155 162 167 167 167 164 161 153 117 56 137 180